FW1417 Weather Reports


Display with metric or nautical units.
time (UTC)temp
F
wind
direction
speed
MPH
gust
MPH
rain 1hr
in
rain 24hr
in
rain mn
in
humidity
%
barometer
mb
20260506032706 69 155 6.0 12.0 0.00 0.00 0.00 57 1007.1
20260506031706 69 165 3.0 9.0 0.00 0.00 0.00 58 1007.0
20260506031207 69 157 2.0 6.0 0.00 0.00 0.00 58 1006.9
20260506030706 69 169 4.0 7.0 0.00 0.00 0.00 58 1006.9
20260506030206 69 156 2.0 7.0 0.00 0.00 0.00 58 1006.8
20260506025706 69 139 3.0 7.0 0.00 0.00 0.00 58 1006.9
20260506025207 69 152 3.0 9.0 0.00 0.00 0.00 58 1007.0
20260506024206 69 145 4.0 9.0 0.00 0.00 0.00 58 1007.1
20260506023706 69 127 3.0 9.0 0.00 0.00 0.00 57 1007.0
20260506023207 69 163 5.0 9.0 0.00 0.00 0.00 57 1007.0
20260506022706 69 145 3.0 12.0 0.00 0.00 0.00 57 1007.1
20260506022206 69 146 5.0 12.0 0.00 0.00 0.00 57 1007.0
20260506021706 70 156 3.0 12.0 0.00 0.00 0.00 57 1006.9
20260506021207 70 146 5.0 15.0 0.00 0.00 0.00 56 1006.9
20260506020706 70 175 5.0 15.0 0.00 0.00 0.00 56 1007.0
20260506015707 70 123 5.0 14.0 0.00 0.00 0.00 56 1006.9
20260506014707 70 148 5.0 13.0 0.00 0.00 0.00 55 1006.8
20260506014207 70 142 6.0 13.0 0.00 0.00 0.00 55 1006.8
20260506013706 71 148 4.0 12.0 0.00 0.00 0.00 54 1006.7
20260506013206 71 128 5.0 10.0 0.00 0.00 0.00 54 1006.7
20260506012707 71 145 4.0 12.0 0.00 0.00 0.00 53 1006.7
20260506012206 71 144 5.0 12.0 0.00 0.00 0.00 53 1006.6
20260506011706 71 153 6.0 12.0 0.00 0.00 0.00 53 1006.5
20260506011206 71 145 6.0 15.0 0.00 0.00 0.00 53 1006.5
20260506010706 71 143 6.0 15.0 0.00 0.00 0.00 52 1006.4
20260506010206 71 152 5.0 16.0 0.00 0.00 0.00 52 1006.3
20260506005706 71 119 6.0 16.0 0.00 0.00 0.00 52 1006.2
20260506005206 71 146 6.0 17.0 0.00 0.00 0.00 52 1006.1
20260506004206 72 145 9.0 15.0 0.00 0.00 0.00 50 1006.1
20260506003706 73 150 6.0 15.0 0.00 0.00 0.00 49 1006.0
20260506003207 74 141 7.0 15.0 0.00 0.00 0.00 46 1006.0
20260506002706 75 140 7.0 13.0 0.00 0.00 0.00 44 1005.9
20260506001706 75 145 3.0 12.0 0.00 0.00 0.00 42 1005.6
20260506001206 75 138 4.0 12.0 0.00 0.00 0.00 42 1005.7
20260506000706 75 152 5.0 12.0 0.00 0.00 0.00 42 1005.6
20260506000206 75 169 4.0 10.0 0.00 0.00 0.00 43 1005.6
20260505234706 75 161 3.0 10.0 0.00 0.00 0.00 43 1005.3
20260505234207 75 141 5.0 12.0 0.00 0.00 0.00 43 1005.2
20260505233706 76 150 6.0 12.0 0.00 0.00 0.00 43 1005.1
20260505233206 77 143 7.0 13.0 0.00 0.00 0.00 41 1005.2
20260505232706 78 148 6.0 13.0 0.00 0.00 0.00 39 1005.0
20260505232205 79 134 5.0 13.0 0.00 0.00 0.00 38 1004.8
20260505231706 80 157 3.0 10.0 0.00 0.00 0.00 36 1004.7
20260505231207 81 143 5.0 18.0 0.00 0.00 0.00 34 1004.6
20260505230706 82 192 5.0 20.0 0.00 0.00 0.00 27 1004.6
20260505230206 82 193 8.0 20.0 0.00 0.00 0.00 26 1004.4
20260505225706 82 182 8.0 21.0 0.00 0.00 0.00 26 1004.5
20260505225206 82 185 10.0 21.0 0.00 0.00 0.00 26 1004.4
20260505224707 82 192 12.0 21.0 0.00 0.00 0.00 25 1004.4
20260505224206 83 170 6.0 17.0 0.00 0.00 0.00 25 1004.3
20260505223206 83 215 11.0 20.0 0.00 0.00 0.00 25 1004.4
20260505222706 83 204 6.0 18.0 0.00 0.00 0.00 25 1004.3
20260505222206 83 232 8.0 18.0 0.00 0.00 0.00 26 1004.3
20260505221205 83 209 6.0 17.0 0.00 0.00 0.00 29 1004.2
20260505220706 83 177 8.0 17.0 0.00 0.00 0.00 30 1004.1
20260505220206 84 180 7.0 17.0 0.00 0.00 0.00 30 1004.0
20260505215706 84 149 9.0 17.0 0.00 0.00 0.00 30 1003.9
20260505214706 84 205 10.0 21.0 0.00 0.00 0.00 28 1003.9
20260505214205 84 208 10.0 21.0 0.00 0.00 0.00 27 1003.8
20260505213707 84 210 6.0 21.0 0.00 0.00 0.00 28 1003.9
20260505213205 84 178 9.0 21.0 0.00 0.00 0.00 28 1003.7
20260505212706 84 172 9.0 23.0 0.00 0.00 0.00 28 1003.7
20260505212205 84 176 9.0 23.0 0.00 0.00 0.00 28 1003.6
20260505210705 84 185 6.0 24.0 0.00 0.00 0.00 27 1003.6
20260505210206 85 213 8.0 26.0 0.00 0.00 0.00 27 1003.6
20260505205206 85 229 6.0 21.0 0.00 0.00 0.00 25 1003.6
20260505204705 85 193 10.0 21.0 0.00 0.00 0.00 25 1003.6
20260505203206 85 194 9.0 23.0 0.00 0.00 0.00 26 1003.8
20260505202705 85 177 4.0 20.0 0.00 0.00 0.00 26 1003.8
20260505202206 85 184 6.0 17.0 0.00 0.00 0.00 27 1003.7
20260505201706 85 179 9.0 20.0 0.00 0.00 0.00 27 1003.8
20260505201205 85 145 7.0 20.0 0.00 0.00 0.00 26 1003.9
20260505200706 85 157 10.0 20.0 0.00 0.00 0.00 26 1004.0
20260505200206 82 191 6.0 20.0 0.00 0.00 0.00 31 1004.1
20260505194706 81 140 5.0 12.0 0.00 0.00 0.00 34 1004.2
20260505194206 81 151 5.0 12.0 0.00 0.00 0.00 36 1004.3
20260505193707 80 145 5.0 12.0 0.00 0.00 0.00 37 1004.3
20260505193258 80 152 6.0 10.0 0.00 0.00 0.00 37 1004.5
20260505190706 81 138 5.0 12.0 0.00 0.00 0.00 38 1005.0
20260505190206 81 240 3.0 12.0 0.00 0.00 0.00 38 1005.1
20260505185706 80 152 4.0 12.0 0.00 0.00 0.00 39 1005.2
20260505185205 81 145 5.0 12.0 0.00 0.00 0.00 38 1005.3
20260505184706 80 137 5.0 12.0 0.00 0.00 0.00 39 1005.3
20260505184206 80 160 6.0 12.0 0.00 0.00 0.00 39 1005.4
20260505183706 80 144 7.0 13.0 0.00 0.00 0.00 39 1005.4
20260505183206 80 134 7.0 13.0 0.00 0.00 0.00 38 1005.5
20260505182705 80 135 5.0 12.0 0.00 0.00 0.00 39 1005.5
20260505182205 80 161 5.0 12.0 0.00 0.00 0.00 39 1005.5
20260505181706 80 138 5.0 12.0 0.00 0.00 0.00 39 1005.6
20260505181205 80 156 5.0 12.0 0.00 0.00 0.00 39 1005.4
20260505180206 80 121 6.0 17.0 0.00 0.00 0.00 39 1005.7
20260505175705 81 150 6.0 17.0 0.00 0.00 0.00 38 1005.7
20260505175206 81 162 6.0 12.0 0.00 0.00 0.00 39 1005.8
20260505174705 81 134 4.0 10.0 0.00 0.00 0.00 38 1005.9
20260505174206 80 171 5.0 12.0 0.00 0.00 0.00 39 1005.8
20260505173705 79 139 6.0 13.0 0.00 0.00 0.00 40 1005.8
20260505173206 79 154 6.0 13.0 0.00 0.00 0.00 40 1006.0
20260505172706 79 156 6.0 13.0 0.00 0.00 0.00 40 1006.0
20260505172205 79 133 6.0 12.0 0.00 0.00 0.00 40 1006.0
20260505171706 79 159 5.0 12.0 0.00 0.00 0.00 40 1006.1
20260505171205 79 143 6.0 12.0 0.00 0.00 0.00 41 1006.0
20260505170706 78 151 7.0 15.0 0.00 0.00 0.00 40 1006.0
20260505170206 78 137 7.0 15.0 0.00 0.00 0.00 41 1006.1
20260505165705 78 138 6.0 15.0 0.00 0.00 0.00 41 1006.2
20260505165205 78 149 5.0 13.0 0.00 0.00 0.00 41 1006.3
20260505164705 78 124 6.0 13.0 0.00 0.00 0.00 41 1006.4
20260505164205 78 165 2.0 12.0 0.00 0.00 0.00 41 1006.4
20260505163205 77 156 4.0 10.0 0.00 0.00 0.00 42 1006.6
20260505162705 77 141 5.0 12.0 0.00 0.00 0.00 43 1006.6
20260505162205 77 147 6.0 13.0 0.00 0.00 0.00 42 1006.7
20260505161705 77 178 6.0 13.0 0.00 0.00 0.00 43 1006.8
20260505161205 77 150 6.0 13.0 0.00 0.00 0.00 42 1006.8
20260505160706 79 147 6.0 13.0 0.00 0.00 0.00 41 1006.9
20260505152706 77 123 3.0 9.0 0.00 0.00 0.00 44 1007.0
20260505152205 76 147 2.0 9.0 0.00 0.00 0.00 45 1007.1
20260505151706 76 144 5.0 9.0 0.00 0.00 0.00 46 1007.1
20260505151205 75 127 4.0 9.0 0.00 0.00 0.00 46 1007.2
20260505150706 75 137 5.0 9.0 0.00 0.00 0.00 46 1007.2
20260505150205 75 141 3.0 9.0 0.00 0.00 0.00 47 1007.3
20260505140205 71 157 5.0 12.0 0.00 0.00 0.00 52 1007.9
20260505130205 69 143 3.0 9.0 0.00 0.00 0.00 55 1007.7
20260505124705 68 152 3.0 7.0 0.00 0.00 0.00 57 1007.5
20260505124205 67 149 3.0 7.0 0.00 0.00 0.00 58 1007.5
20260505123705 67 139 3.0 9.0 0.00 0.00 0.00 58 1007.5
20260505123206 66 165 3.0 10.0 0.00 0.00 0.00 59 1007.5
20260505122705 66 180 5.0 10.0 0.00 0.00 0.00 60 1007.5
20260505122204 65 153 5.0 8.0 0.00 0.00 0.00 62 1007.5
20260505121705 64 191 4.0 7.0 0.00 0.00 0.00 63 1007.5
20260505121204 64 188 4.0 7.0 0.00 0.00 0.00 64 1007.6
20260505120706 63 214 3.0 8.0 0.00 0.00 0.00 65 1007.6
20260505120205 63 149 2.0 6.0 0.00 0.00 0.00 66 1007.6
20260505115705 63 132 2.0 5.0 0.00 0.00 0.00 66 1007.6
20260505115205 63 147 1.0 5.0 0.00 0.00 0.00 66 1007.6
20260505114705 62 132 2.0 8.0 0.00 0.00 0.00 66 1007.6
20260505114206 62 164 3.0 8.0 0.00 0.00 0.00 66 1007.5
20260505113704 62 154 2.0 7.0 0.00 0.00 0.00 66 1007.7
20260505113205 62 145 4.0 12.0 0.00 0.00 0.00 66 1007.8
20260505112205 62 204 3.0 10.0 0.00 0.00 0.00 67 1007.8
20260505111705 61 186 3.0 10.0 0.00 0.00 0.00 67 1007.8
20260505110705 61 177 3.0 6.0 0.00 0.00 0.00 67 1007.6
20260505110205 61 180 2.0 7.0 0.00 0.00 0.00 68 1007.7
20260505102205 60 167 1.0 6.0 0.00 0.00 0.00 69 1007.7
20260505101205 60 190 3.0 7.0 0.00 0.00 0.00 69 1007.6
20260505100705 60 212 2.0 7.0 0.00 0.00 0.00 69 1007.5
20260505100204 60 219 2.0 7.0 0.00 0.00 0.00 68 1007.2
20260505095705 60 134 3.0 7.0 0.00 0.00 0.00 68 1006.9
20260505095204 60 165 3.0 7.0 0.00 0.00 0.00 68 1006.9
20260505094705 60 152 2.0 5.0 0.00 0.00 0.00 68 1006.7
20260505094205 60 165 1.0 5.0 0.00 0.00 0.00 68 1006.4
20260505093705 60 119 2.0 5.0 0.00 0.00 0.00 68 1006.4
20260505092205 60 158 3.0 7.0 0.00 0.00 0.00 67 1006.5
20260505091704 60 191 3.0 7.0 0.00 0.00 0.00 67 1006.5
20260505091205 60 214 2.0 6.0 0.00 0.00 0.00 67 1006.5
20260505090704 60 153 3.0 9.0 0.00 0.00 0.00 67 1006.5
20260505090205 60 215 2.0 9.0 0.00 0.00 0.00 67 1006.5
20260505085704 60 161 2.0 6.0 0.00 0.00 0.00 67 1006.5
20260505085205 60 196 3.0 7.0 0.00 0.00 0.00 66 1006.5
20260505084705 60 165 2.0 7.0 0.00 0.00 0.00 66 1006.5
20260505084204 60 148 3.0 6.0 0.00 0.00 0.00 66 1006.6
20260505083705 60 184 1.0 6.0 0.00 0.00 0.00 66 1006.6
20260505083205 60 184 2.0 6.0 0.00 0.00 0.00 65 1006.5
20260505082705 60 198 2.0 5.0 0.00 0.00 0.00 65 1006.6
20260505082205 60 216 1.0 5.0 0.00 0.00 0.00 65 1006.5
20260505081205 60 169 1.0 5.0 0.00 0.00 0.00 65 1006.5
20260505080704 61 156 2.0 5.0 0.00 0.00 0.00 64 1006.4
20260505080206 61 142 2.0 5.0 0.00 0.00 0.00 64 1006.4
20260505075705 60 148 2.0 5.0 0.00 0.00 0.00 64 1006.5
20260505075204 61 148 1.0 6.0 0.00 0.00 0.00 64 1006.5
20260505074205 61 163 1.0 6.0 0.00 0.00 0.00 63 1006.5
20260505073704 61 149 2.0 6.0 0.00 0.00 0.00 63 1006.5
20260505073205 61 179 2.0 5.0 0.00 0.00 0.00 63 1006.5
20260505072705 61 169 2.0 5.0 0.00 0.00 0.00 63 1006.5
20260505071704 61 194 1.0 5.0 0.00 0.00 0.00 63 1006.5
20260505071204 61 192 1.0 5.0 0.00 0.00 0.00 63 1006.4
20260505070705 61 161 1.0 5.0 0.00 0.00 0.00 63 1006.5
20260505070204 61 151 2.0 5.0 0.00 0.00 0.00 63 1006.5
20260505065705 61 154 1.0 3.0 0.00 0.00 0.00 62 1006.4
20260505065204 61 153 2.0 6.0 0.00 0.00 0.00 62 1006.4
20260505064704 61 163 2.0 7.0 0.00 0.00 0.00 62 1006.4
20260505064204 61 123 2.0 7.0 0.00 0.00 0.00 62 1006.4
20260505063204 61 146 2.0 5.0 0.00 0.00 0.00 62 1006.4
20260505062704 61 181 1.0 3.0 0.00 0.00 0.00 62 1006.5
20260505062205 61 144 2.0 3.0 0.00 0.00 0.00 62 1006.5
20260505061705 61 141 0.0 3.0 0.00 0.00 0.00 61 1006.6
20260505060704 61 142 1.0 3.0 0.00 0.00 0.00 61 1006.7
20260505060204 61 140 1.0 3.0 0.00 0.00 0.00 61 1006.6
20260505055704 61 130 1.0 5.0 0.00 0.00 0.00 61 1006.6
20260505055204 61 147 1.0 5.0 0.00 0.00 0.00 61 1006.7
20260505054704 61 121 2.0 5.0 0.00 0.00 0.00 61 1006.7
20260505054204 61 150 1.0 7.0 0.00 0.00 0.00 61 1006.7
20260505053705 61 147 3.0 7.0 0.00 0.00 0.00 61 1006.6
20260505053205 62 123 3.0 8.0 0.00 0.00 0.00 60 1006.6
20260505052704 62 159 3.0 8.0 0.00 0.00 0.00 60 1006.7
20260505051705 62 146 3.0 9.0 0.00 0.00 0.00 60 1006.8
20260505051205 62 161 3.0 9.0 0.00 0.00 0.00 59 1006.8
20260505050704 62 133 3.0 10.0 0.00 0.00 0.00 59 1006.8
20260505050204 62 157 4.0 10.0 0.00 0.00 0.00 59 1006.9
20260505041707 62 165 4.0 10.0 0.00 0.00 0.00 57 1007.0
20260505040706 62 150 3.0 8.0 0.00 0.00 0.00 57 1007.1
20260505040207 62 162 3.0 9.0 0.00 0.00 0.00 56 1007.1
20260505035708 63 134 4.0 12.0 0.00 0.00 0.00 56 1007.1
20260505035208 63 145 5.0 12.0 0.00 0.00 0.00 56 1007.2
20260505034706 63 146 3.0 10.0 0.00 0.00 0.00 55 1007.1
20260505034207 63 164 5.0 10.0 0.00 0.00 0.00 55 1007.2
20260505033707 63 148 3.0 8.0 0.00 0.00 0.00 55 1007.1
20260505033207 63 159 4.0 9.0 0.00 0.00 0.00 55 1007.1